Simultaneous Nadir Overpasses (SNOs) Predictions

Prediction of SNOs between GOES-16 and METOP-C Satellite Orbit:

Table of predicted SNOs for the next 14.0 days since TLE Epoch: 10/21/2023
Index Date Time (GOES-16) GOES-16 Lat,Lon METOP-C Lat,Lon Distance(km) Time Diff (sec)
1 10/21/2023 02:49:01 0.06, -75.20 0.00, -79.60 489.24 80
2 10/22/2023 02:25:27 0.05, -75.21 0.21, -74.41 90.73 80
3 10/23/2023 14:44:18 -0.05, -75.23 0.81, -78.96 426.12 80
4 10/24/2023 14:26:20 -0.05, -75.23 -0.35, -73.98 143.89 80
5 10/26/2023 02:45:21 0.05, -75.23 -0.67, -78.57 379.92 80
6 10/27/2023 02:22:01 0.05, -75.25 0.43, -73.58 190.56 80
7 10/28/2023 14:40:53 -0.05, -75.28 0.58, -78.13 324.95 80
8 10/29/2023 14:22:53 -0.05, -75.29 -0.52, -73.14 245.85 80
9 10/31/2023 02:41:54 0.04, -75.30 -0.53, -77.72 276.76 80
10 11/01/2023 02:18:34 0.04, -75.32 0.59, -72.73 294.35 80
11 11/02/2023 14:37:25 -0.03, -75.36 0.43, -77.28 220.45 80
12 11/03/2023 14:19:27 -0.03, -75.38 -0.75, -72.30 351.08 80
